When you browse on this site, cookies collect data to enhance your experience and personalize the content and advertising you see.
Visit our Privacy Policy to learn more. By continuing to use the site, you agree to this use of cookies and data.

Hourly Weather Banka

Today, 14 August, Friday

Time Temperature Precipitation Wind Pressure Humidity
00:00 +23°C° 0 mm 0 mps 757 mmHg 64%
01:00 +25°C° 0 mm 1 mps 757 mmHg 62%
02:00 +25°C° 0 mm 2 mps 757 mmHg 60%
03:00 +25°C° 0 mm 3 mps 757 mmHg 56%
04:00 +26°C° 0 mm 3 mps 757 mmHg 55%
05:00 +26°C° 0 mm 2 mps 757 mmHg 53%
06:00 +26°C° 0 mm 2 mps 757 mmHg 52%
07:00 +28°C° 0 mm 4 mps 757 mmHg 49%
08:00 +29°C° 0 mm 6 mps 757 mmHg 46%
09:00 +32°C° 0 mm 8 mps 757 mmHg 47%
10:00 +32°C° 0 mm 8 mps 757 mmHg 46%
11:00 +33°C° 0 mm 8 mps 757 mmHg 44%
12:00 +33°C° 0 mm 8 mps 757 mmHg 42%
13:00 +33°C° 0 mm 8 mps 756 mmHg 44%
14:00 +33°C° 0 mm 8 mps 756 mmHg 45%
15:00 +32°C° 0 mm 8 mps 755 mmHg 47%
16:00 +32°C° 0 mm 8 mps 755 mmHg 51%
17:00 +30°C° 0 mm 7 mps 755 mmHg 55%
18:00 +29°C° 0 mm 7 mps 756 mmHg 59%
19:00 +28°C° 0 mm 7 mps 756 mmHg 62%
20:00 +28°C° 0 mm 6 mps 756 mmHg 65%
21:00 +27°C° 0 mm 5 mps 756 mmHg 68%
22:00 +27°C° 0 mm 5 mps 756 mmHg 68%
23:00 +26°C° 0 mm 5 mps 756 mmHg 68%

Tomorrow, 15 August, Saturday

Time Temperature Precipitation Wind Pressure Humidity
00:00 +26°C° 0 mm 5 mps 756 mmHg 67%
01:00 +26°C° 0 mm 5 mps 756 mmHg 67%
02:00 +26°C° 0 mm 5 mps 756 mmHg 67%
03:00 +26°C° 0 mm 6 mps 755 mmHg 67%
04:00 +26°C° 0 mm 6 mps 756 mmHg 66%
05:00 +26°C° 0 mm 7 mps 756 mmHg 65%
06:00 +26°C° 0 mm 7 mps 756 mmHg 64%
07:00 +27°C° 0 mm 8 mps 757 mmHg 59%
08:00 +28°C° 0 mm 10 mps 757 mmHg 53%
09:00 +31°C° 0 mm 11 mps 757 mmHg 47%
10:00 +29°C° 0 mm 11 mps 757 mmHg 48%
11:00 +29°C° 0 mm 12 mps 758 mmHg 48%
12:00 +29°C° 0 mm 12 mps 758 mmHg 49%
13:00 +28°C° 0 mm 12 mps 758 mmHg 52%
14:00 +28°C° 0 mm 12 mps 758 mmHg 55%
15:00 +27°C° 0 mm 11 mps 759 mmHg 58%
16:00 +27°C° 0 mm 10 mps 759 mmHg 57%
17:00 +27°C° 0 mm 9 mps 759 mmHg 57%
18:00 +26°C° 0 mm 8 mps 759 mmHg 56%
19:00 +26°C° 0 mm 8 mps 759 mmHg 60%
20:00 +24°C° 0 mm 8 mps 760 mmHg 64%
21:00 +24°C° 0 mm 7 mps 760 mmHg 68%
22:00 +24°C° 0 mm 6 mps 760 mmHg 68%
23:00 +24°C° 0 mm 6 mps 760 mmHg 68%

Day after tomorrow, 16 August, Sunday

Time Temperature Precipitation Wind Pressure Humidity
00:00 +25°C° 0 mm 5 mps 760 mmHg 68%
01:00 +23°C° 0 mm 4 mps 760 mmHg 68%
02:00 +23°C° 0 mm 4 mps 759 mmHg 68%
03:00 +23°C° 0 mm 4 mps 759 mmHg 68%
04:00 +23°C° 0 mm 4 mps 759 mmHg 66%
05:00 +25°C° 0 mm 4 mps 759 mmHg 65%
06:00 +25°C° 0 mm 4 mps 759 mmHg 63%
07:00 +26°C° 0 mm 4 mps 760 mmHg 60%
08:00 +26°C° 0 mm 5 mps 760 mmHg 58%
09:00 +27°C° 0 mm 5 mps 760 mmHg 55%
10:00 +28°C° 0 mm 5 mps 760 mmHg 52%
11:00 +28°C° 0 mm 5 mps 760 mmHg 49%
12:00 +29°C° 0 mm 5 mps 760 mmHg 46%
13:00 +29°C° 0 mm 5 mps 759 mmHg 47%
14:00 +29°C° 0 mm 4 mps 759 mmHg 48%
15:00 +28°C° 0 mm 4 mps 758 mmHg 48%
16:00 +28°C° 0 mm 4 mps 758 mmHg 51%
17:00 +27°C° 0 mm 4 mps 758 mmHg 53%
18:00 +27°C° 0 mm 4 mps 758 mmHg 55%
19:00 +26°C° 0 mm 3 mps 758 mmHg 58%
20:00 +26°C° 0 mm 2 mps 758 mmHg 60%
21:00 +25°C° 0 mm 2 mps 759 mmHg 63%
22:00 +25°C° 0 mm 2 mps 758 mmHg 63%
23:00 +25°C° 0 mm 2 mps 758 mmHg 63%

17 August, Monday

Time Temperature Precipitation Wind Pressure Humidity
00:00 +24°C° 0 mm 2 mps 758 mmHg 63%
01:00 +24°C° 0 mm 3 mps 758 mmHg 62%
02:00 +24°C° 0 mm 3 mps 758 mmHg 61%
03:00 +24°C° 0 mm 3 mps 758 mmHg 60%
04:00 +25°C° 0 mm 3 mps 758 mmHg 61%
05:00 +25°C° 0 mm 3 mps 758 mmHg 61%
06:00 +25°C° 0 mm 4 mps 758 mmHg 62%
07:00 +26°C° 0 mm 4 mps 759 mmHg 61%
08:00 +27°C° 0 mm 5 mps 759 mmHg 60%
09:00 +28°C° 0 mm 6 mps 759 mmHg 59%
10:00 +28°C° 0.1 mm 7 mps 759 mmHg 55%
11:00 +29°C° 0.1 mm 8 mps 759 mmHg 52%
12:00 +29°C° 0.1 mm 9 mps 759 mmHg 48%
13:00 +29°C° 0 mm 10 mps 759 mmHg 48%
14:00 +29°C° 0 mm 10 mps 759 mmHg 48%
15:00 +29°C° 0 mm 11 mps 759 mmHg 48%
16:00 +28°C° 0 mm 10 mps 760 mmHg 50%
17:00 +27°C° 0 mm 10 mps 760 mmHg 53%
18:00 +26°C° 0 mm 9 mps 760 mmHg 56%
19:00 +26°C° 0 mm 9 mps 761 mmHg 59%
20:00 +24°C° 0 mm 8 mps 761 mmHg 61%
21:00 +24°C° 0 mm 7 mps 761 mmHg 63%
22:00 +24°C° 0 mm 6 mps 761 mmHg 63%
23:00 +25°C° 0 mm 5 mps 761 mmHg 62%

18 August, Tuesday

Time Temperature Precipitation Wind Pressure Humidity
00:00 +25°C° 0 mm 4 mps 761 mmHg 61%
01:00 +25°C° 0 mm 4 mps 761 mmHg 62%
02:00 +23°C° 0 mm 4 mps 761 mmHg 63%
03:00 +23°C° 0 mm 4 mps 761 mmHg 64%
04:00 +23°C° 0 mm 4 mps 761 mmHg 63%
05:00 +24°C° 0 mm 3 mps 761 mmHg 62%
06:00 +25°C° 0 mm 3 mps 761 mmHg 61%
07:00 +26°C° 0 mm 3 mps 761 mmHg 58%
08:00 +27°C° 0 mm 3 mps 761 mmHg 55%
09:00 +27°C° 0 mm 3 mps 761 mmHg 53%
10:00 +28°C° 0 mm 3 mps 761 mmHg 51%
11:00 +28°C° 0 mm 4 mps 760 mmHg 50%
12:00 +29°C° 0 mm 4 mps 760 mmHg 49%
13:00 +29°C° 0 mm 4 mps 759 mmHg 49%
14:00 +29°C° 0 mm 5 mps 759 mmHg 49%
15:00 +29°C° 0 mm 5 mps 759 mmHg 49%
16:00 +28°C° 0 mm 5 mps 759 mmHg 51%
17:00 +27°C° 0 mm 4 mps 759 mmHg 54%
18:00 +27°C° 0 mm 4 mps 758 mmHg 56%
19:00 +26°C° 0 mm 4 mps 759 mmHg 58%
20:00 +26°C° 0 mm 3 mps 759 mmHg 60%
21:00 +25°C° 0 mm 3 mps 759 mmHg 63%
22:00 +25°C° 0 mm 2 mps 759 mmHg 64%
23:00 +24°C° 0 mm 2 mps 758 mmHg 65%

19 August, Wednesday

Time Temperature Precipitation Wind Pressure Humidity
00:00 +24°C° 0 mm 2 mps 758 mmHg 66%
01:00 +24°C° 0 mm 2 mps 758 mmHg 66%
02:00 +24°C° 0 mm 2 mps 758 mmHg 67%
03:00 +24°C° 0 mm 2 mps 758 mmHg 67%
04:00 +24°C° 0 mm 2 mps 758 mmHg 65%
05:00 +24°C° 0 mm 2 mps 758 mmHg 64%
06:00 +25°C° 0 mm 2 mps 758 mmHg 62%
07:00 +26°C° 0 mm 2 mps 758 mmHg 57%
08:00 +27°C° 0 mm 2 mps 758 mmHg 51%
09:00 +28°C° 0 mm 2 mps 758 mmHg 46%
10:00 +29°C° 0 mm 3 mps 757 mmHg 43%
11:00 +30°C° 0 mm 3 mps 757 mmHg 40%
12:00 +30°C° 0 mm 4 mps 757 mmHg 38%
13:00 +30°C° 0 mm 4 mps 757 mmHg 38%
14:00 +30°C° 0 mm 5 mps 756 mmHg 37%
15:00 +30°C° 0 mm 5 mps 756 mmHg 37%
16:00 +30°C° 0 mm 5 mps 756 mmHg 41%
17:00 +29°C° 0 mm 4 mps 757 mmHg 46%
18:00 +28°C° 0 mm 4 mps 757 mmHg 50%
19:00 +27°C° 0 mm 3 mps 757 mmHg 53%
20:00 +27°C° 0 mm 3 mps 757 mmHg 56%
21:00 +26°C° 0 mm 2 mps 758 mmHg 58%
22:00 +26°C° 0 mm 2 mps 757 mmHg 59%
23:00 +25°C° 0 mm 2 mps 757 mmHg 60%
Show more